Flag for Germany Weather past 2 weeks in Göppingen, Baden-Württemberg, Germany

Now
70 °F

Thunderstorms. Overcast.


Feels Like: 70 °F
Forecast: 55 / 77 °F
Wind: 3 mph from Northeast

Location: Stoetten

Current Time: Jul 22, 2014 at 5:36:24 PM

Latest Report: Jul 22, 2014 at 5:00 PM


Visibility: 13 mi

Pressure: 29.89 "Hg

Humidity: 83%

Dew point: 64 °F

Location of GöppingenLocation

Historic Weather in Göppingen — Graph

°F

Göppingen temperature yesterday

Maximum temperature yesterday: 65 °F (at 2:00 PM)
Minimum temperature yesterday: 58 °F (at 5:00 AM)
Average temperature yesterday: 60 °F

Past Weeks' High & Low Weather Summary

 TemperatureHumidityPressure
High85 °F (Jul 19, 5:00 PM)100% (Jul 8, 2:00 AM)30.19 "Hg (Jul 8, 2:00 AM)
Low47 °F (Jul 9, 11:00 PM)31% (Jul 18, 4:00 PM)29.78 "Hg (Jul 13, 5:00 PM)
Average63 °F78%29.94 "Hg
* Reported Jul 7 4:00 PM — Jul 22 4:00 PM, Göppingen, Weather by CustomWeather, © 2014

Note: Actual official high and low records may vary slightly from our data, if they occured in-between our weather recording intervals... More about our weather records

Advertising

Göppingen weather history for previous 24 hours

 ConditionsComfort  
Time TempWeatherWind HumidityBarometerVisibility
4:00 PM
Jul 22
69 °FOvercast.N/A86%29.90 "Hg12 mi
3:00 PM67 °FOvercast.5 mph89%29.90 "Hg10 mi
2:00 PM65 °FLight rain. Overcast.5 mph95%29.91 "Hg7 mi
1:00 PM65 °FLight rain. Overcast.3 mph99%29.90 "Hg6 mi
12:00 PM64 °FLight rain. Overcast.5 mph98%29.90 "Hg5 mi
11:00 AM63 °FOvercast.6 mph99%29.88 "Hg6 mi
10:00 AM62 °FOvercast.6 mph100%29.87 "Hg6 mi
9:00 AM62 °FOvercast.3 mph100%29.85 "Hg5 mi
8:00 AM60 °FRain. Dense fog.3 mph100%29.85 "Hg0 mi
7:00 AM60 °FLight rain. Dense fog.2 mph100%29.84 "Hg1 mi
6:00 AM60 °FLight rain. Dense fog.5 mph100%29.84 "Hg0 mi
5:00 AM60 °FLight rain. Low clouds.5 mph100%29.82 "Hg0 mi
4:00 AM61 °FRain. Low clouds.6 mph100%29.82 "Hg0 mi
3:00 AM61 °FLight rain. Low clouds.5 mph100%29.83 "Hg0 mi
2:00 AM61 °FLight rain. Low clouds.6 mph100%29.84 "Hg0 mi
1:00 AM61 °FRain. Low clouds.6 mph100%29.86 "Hg0 mi
12:00 AM60 °FLight rain. Low clouds.7 mph100%29.87 "Hg0 mi
11:00 PM
Jul 21
61 °FRain. Low clouds.7 mph100%29.87 "Hg0 mi
10:00 PM61 °FLight rain. Low clouds.6 mph100%29.89 "Hg0 mi
9:00 PM60 °FLight rain. Dense fog.5 mph100%29.88 "Hg0 mi
8:00 PM60 °FLight rain. Low clouds.5 mph99%29.88 "Hg2 mi
7:00 PM61 °FLight rain. Dense fog.6 mph99%29.87 "Hg1 mi
6:00 PM61 °FLight rain. Low clouds.5 mph97%29.88 "Hg12 mi
5:00 PM62 °FLight rain. Low clouds.5 mph93%29.87 "Hg28 mi
Weather by CustomWeather, © 2014

See weather overviewHow to use our weather pages